Weather History for KANJ - December, 2012

Change the Weather History Date:

Monday, December 17, 2012

  Actual Average Record
Temperature  
Mean Temperature 35 °F 22 °F  
Max Temperature 36 °F 28 °F 42 °F (1895)
Min Temperature 33 °F 15 °F -22 °F (1919)
Degree Days  
Heating Degree Days 30 43  
Month to date heating degree days 599 686  
Since 1 July heating degree days 2387 2618  
Moisture  
Dew Point 32 °F    
Average Humidity 91    
Maximum Humidity 100    
Minimum Humidity 82    
Precipitation  
Precipitation 0.12 in 0.08 in 0.56 in (1990)
Month to date precipitation 1.69 1.63  
Year to date precipitation 27.90 31.79  
Snow  
Snow 0.20 in 1.10 in 8.00 in (1940)
Month to date snowfall 14.0 17.8  
Since 1 July snowfall 37.0 34.5  
Snow Depth 5.00 in    
Sea Level Pressure  
Sea Level Pressure 29.61 in    
Wind  
Wind Speed 6 mph (WSW)    
Max Wind Speed 14 mph    
Max Gust Speed 18 mph    
Visibility 6 miles    
Events Fog , Rain , Snow    
T = Trace of Precipitation, MM = Missing Value Source: NWS Daily Summary

Daily Weather History Graph

Daily Weather History Graph

Search for Another Location

Airport or City:

Trip Planner

Search our weather history database for the weather conditions in past years. The results will help you decide how hot, cold, wet, or windy it might be!

Date:

Astronomy

Dec. 17, 2012 Rise Set
Actual Time 8:16 AM EST 4:51 PM EST
Civil Twilight 7:41 AM EST 5:26 PM EST
Nautical Twilight 7:02 AM EST 6:04 PM EST
Astronomical Twilight 6:26 AM EST 6:41 PM EST
Moon 11:09 AM EST (12/17) 10:28 PM EST (12/17)
Length of Visible Light 9h 45m
Length of Day
8h 35m
Waxing Crescent, 24% of the Moon is Illuminated
Dec 17
Waxing Crescent
Dec 20
First Quarter
Dec 28
Full
Jan 4
Last Quarter
Jan 11
New

Hourly Weather History & Observations

Time (EST) Temp. Windchill Dew Point Humidity Pressure Visibility Wind Dir Wind Speed Gust Speed Precip Events Conditions
12:55 AM 34.0 °F - 32.0 °F 92% 29.55 in 0.8 mi Calm Calm - 0.03 in Rain Light Rain
1:55 AM 33.1 °F - 30.9 °F 92% 29.56 in 0.5 mi Calm Calm - 0.00 in Fog , Rain Light Rain
2:55 AM 33.1 °F - 30.9 °F 92% 29.57 in 0.5 mi Calm Calm - 0.00 in Fog , Rain Light Rain
3:34 AM 33.1 °F - 30.9 °F 92% 29.55 in 0.5 mi Calm Calm - 0.00 in Fog , Rain Light Rain
3:41 AM 33.1 °F 30.0 °F 30.9 °F 92% 29.55 in 1.0 mi SSW 3.5 mph - 0.00 in Rain Light Rain
3:55 AM 33.1 °F 30.0 °F 30.9 °F 92% 29.57 in 2.5 mi SW 3.5 mph - 0.00 in Rain Light Rain
4:03 AM 33.1 °F 30.0 °F 30.9 °F 92% 29.55 in 4.0 mi WSW 3.5 mph - 0.00 in Rain Light Rain
4:55 AM 34.0 °F 28.0 °F 32.0 °F 92% 29.58 in 5.0 mi WSW 6.9 mph - 0.00 in Rain Light Rain
5:38 AM 34.0 °F 26.0 °F 32.0 °F 92% 29.56 in 2.0 mi WSW 10.4 mph - 0.01 in Rain Light Rain
5:55 AM 34.0 °F 27.2 °F 33.1 °F 96% 29.58 in 2.5 mi WSW 8.1 mph - 0.01 in Rain Light Rain
6:05 AM 34.0 °F 27.2 °F 33.1 °F 96% 29.57 in 3.0 mi WSW 8.1 mph - 0.00 in Rain Light Rain
6:31 AM 35.1 °F 29.3 °F 33.1 °F 92% 29.57 in 10.0 mi West 6.9 mph - 0.00 in Rain Light Rain
6:55 AM 35.1 °F 28.6 °F 33.1 °F 92% 29.59 in 10.0 mi West 8.1 mph - 0.00 in Rain Light Rain
7:55 AM 35.1 °F 27.9 °F 32.0 °F 89% 29.60 in 10.0 mi WSW 9.2 mph - 0.00 in Rain Light Rain
8:34 AM 34.0 °F 27.2 °F 30.9 °F 89% 29.58 in 10.0 mi WSW 8.1 mph - 0.00 in Rain Light Rain
8:48 AM 34.0 °F 27.2 °F 30.9 °F 89% 29.59 in 10.0 mi SW 8.1 mph - 0.00 in Rain Light Rain
8:55 AM 34.0 °F 27.2 °F 30.9 °F 89% 29.61 in 10.0 mi SW 8.1 mph - 0.00 in Rain Light Rain
9:55 AM 35.1 °F 28.6 °F 30.9 °F 85% 29.62 in 10.0 mi SSW 8.1 mph - 0.00 in Rain Light Rain
10:18 AM 34.0 °F 26.6 °F 30.9 °F 89% 29.61 in 5.0 mi SW 9.2 mph - 0.00 in Snow Light Snow
10:55 AM 34.0 °F 26.0 °F 30.9 °F 89% 29.63 in 2.5 mi SW 10.4 mph - 0.01 in Snow Light Snow
11:06 AM 33.1 °F 24.9 °F 30.9 °F 92% 29.61 in 1.0 mi SW 10.4 mph - 0.00 in Snow Light Snow
11:17 AM 34.0 °F 25.5 °F 30.9 °F 89% 29.60 in 3.0 mi WSW 11.5 mph - 0.01 in Snow Light Snow
11:55 AM 35.1 °F 26.9 °F 32.0 °F 89% 29.62 in 10.0 mi West 11.5 mph - 0.01 in Rain Light Rain
12:55 PM 35.1 °F 26.4 °F 32.0 °F 89% 29.60 in 8.0 mi West 12.7 mph - 0.00 in Rain Light Rain
1:55 PM 35.1 °F 27.4 °F 32.0 °F 89% 29.60 in 7.0 mi West 10.4 mph - 0.00 in Rain Light Rain
2:55 PM 36.0 °F 29.0 °F 32.0 °F 86% 29.61 in 3.0 mi West 9.2 mph - 0.00 in Rain Light Rain
3:32 PM 36.0 °F 29.0 °F 32.0 °F 86% 29.60 in 10.0 mi West 9.2 mph - 0.01 in Rain Light Rain
3:55 PM 35.1 °F 28.6 °F 33.1 °F 92% 29.62 in 10.0 mi WSW 8.1 mph - 0.01 in Rain Light Rain
4:55 PM 35.1 °F 29.3 °F 32.0 °F 89% 29.64 in 9.0 mi WSW 6.9 mph - 0.00 in Rain Light Rain
7:44 PM 33.1 °F 30.0 °F 30.9 °F 92% 29.65 in 2.5 mi WSW 3.5 mph - 0.02 in Snow Light Snow
7:55 PM 33.1 °F 30.0 °F 30.9 °F 92% 29.67 in 2.5 mi West 3.5 mph - 0.02 in Snow Light Snow
8:02 PM 33.1 °F 30.0 °F 30.9 °F 92% 29.65 in 3.0 mi WSW 3.5 mph - 0.00 in Snow Light Snow
8:21 PM 33.1 °F 30.0 °F 30.9 °F 92% 29.65 in 10.0 mi West 3.5 mph - 0.01 in Rain Light Rain
8:55 PM 33.1 °F 30.0 °F 32.0 °F 96% 29.67 in 10.0 mi West 3.5 mph - 0.01 in Rain Light Rain
9:23 PM 34.0 °F 31.0 °F 32.0 °F 92% 29.64 in 10.0 mi WSW 3.5 mph - 0.00 in Rain Light Rain
9:55 PM 34.0 °F 31.0 °F 32.0 °F 92% 29.65 in 10.0 mi West 3.5 mph - 0.00 in Rain Light Rain
10:16 PM 34.0 °F 29.8 °F 30.9 °F 89% 29.63 in 10.0 mi WNW 4.6 mph - 0.00 in Rain Light Rain
10:55 PM 34.0 °F - 32.0 °F 92% 29.65 in 10.0 mi Calm Calm - 0.00 in Rain Light Rain
11:51 PM 33.8 °F - 30.2 °F 87% 29.64 in 10.0 mi Calm Calm - 0.00 in Rain Light Rain
11:55 PM 33.1 °F - 32.0 °F 96% 29.66 in 10.0 mi Calm Calm - 0.00 in Rain Light Rain